Location: Ferchesar
(52.6477°N, 12.4298°E)
Time: 21:57:38
(UTC+01:00)

TIGRISAT - Pass Details

Date: 20 October 2021
Orbit: 603 x 689 km, 97.7° (Epoch: 30 November)

Event Time Altitude Azimuth Distance (km) Brightness Sun altitude
Rises 06:26:17 0° 142° (SE) 3,052 ? -12.6°
Reaches altitude 10° 06:28:38 10° 135° (SE) 2,140 ? -12.3°
Maximum altitude 06:33:00 40° 66° (ENE) 1,011 ? -11.6°
Drops below altitude 10° 06:37:22 10° 358° (N) 2,136 ? -10.9°
Sets 06:39:42 0° 351° (N) 3,047 ? -10.6°
